Location: Plainartige
(45.6866°N, 1.7993°E)
Time: 06:35:47
(UTC+00:00)

deb r/b Ablestar - Pass Details

Date: 26 September 2021
Orbit: 844 x 997 km, 67.7° (Epoch: 25 October)

Event Time Altitude Azimuth Distance (km) Brightness Sun altitude
Rises 18:33:03 0° 333° (NNW) 3,412 ? -9.7°
Reaches altitude 10° 18:37:28 10° 5° (N) 2,475 ? -10.4°
Maximum altitude 18:39:27 12° 25° (NNE) 2,356 ? -10.8°
Drops below altitude 10° 18:41:26 10° 46° (NE) 2,483 ? -11.1°
Enters shadow 18:43:03 - 60° (ENE) 2,749 ? -11.4°
